1484056800.78,27018,6.44,72330.5,-16.91,-38.79,-40.29,0,*69
1484056802.05,27019,6.44,72330.5,-16.91,-38.73,-40.09,0,*60
1484056803.35,27020,6.38,72328.0,-16.91,-38.79,-40.21,0,*6A
1484056804.57,27021,6.44,72330.3,-16.89,-38.55,-40.03,0,*6C
1484056805.84,27022,6.38,72328.3,-16.91,-38.73,-40.09,0,*68
1484056807.11,27023,6.38,72326.5,-16.91,-38.73,-40.09,0,*69
1484056808.35,27024,6.44,72328.3,-16.89,-38.67,-39.91,0,*6D
1484056809.59,27025,6.38,72324.8,-16.91,-38.73,-39.85,0,*65
1484056810.85,27026,6.44,72332.5,-16.91,-38.73,-39.97,0,*65
1484056812.07,27027,6.38,72328.8,-16.89,-38.73,-40.03,0,*6E
1484056813.37,27028,6.44,72330.3,-16.91,-38.79,-40.09,0,*68
1484056814.67,27029,6.44,72328.0,-16.91,-38.91,-40.09,0,*6F
1484056815.88,27030,6.38,72324.8,-16.89,-38.85,-40.03,0,*61
1484056817.19,27031,6.44,72328.0,-16.91,-38.79,-40.09,0,*60
1484056818.46,27032,6.44,72330.0,-16.89,-38.91,-40.09,0,*6C
1484056819.72,27033,6.44,72334.0,-16.91,-38.91,-40.03,0,*6E
1484056820.96,27034,6.38,72328.8,-16.89,-38.91,-40.03,0,*60
1484056822.23,27035,6.44,72330.0,-16.89,-38.91,-40.09,0,*6B
1484056823.5,27036,6.44,72328.8,-16.89,-38.91,-40.09,0,*68
1484056824.77,27037,6.44,72334.8,-16.95,-39.03,-40.03,0,*64
1484056826.06,27038,6.38,72330.0,-16.91,-38.91,-39.97,0,*66
1484056827.3,27039,6.44,72332.5,-16.89,-39.03,-39.85,0,*67
1484056828.6,27040,6.44,72330.8,-16.91,-38.91,-40.09,0,*60
1484056829.87,27041,6.44,72332.0,-16.91,-38.97,-39.97,0,*6E
1484056831.11,27042,6.44,72334.3,-16.89,-38.91,-40.03,0,*61
1484056832.38,27043,6.44,72328.0,-16.91,-39.09,-40.09,0,*63
1484056833.66,27044,6.44,72328.5,-16.91,-39.09,-39.97,0,*6D
1484056834.91,27045,6.38,72324.3,-16.89,-39.09,-40.09,0,*6C
1484056836.19,27046,6.44,72330.0,-16.91,-39.15,-40.15,0,*66
1484056837.44,27047,6.44,72328.8,-16.91,-39.09,-40.15,0,*6A
1484056838.71,27048,6.44,72330.8,-16.91,-39.09,-39.97,0,*61
1484056839.95,27049,6.44,72332.0,-16.89,-39.03,-40.03,0,*60
1484056841.22,27050,6.44,72330.8,-16.89,-39.03,-40.09,0,*62
1484056842.49,27051,6.44,72330.0,-16.91,-38.97,-40.09,0,*66
1484056843.76,27052,6.44,72328.3,-16.89,-38.91,-40.09,0,*6A
1484056845.0,27053,6.38,72324.8,-16.89,-38.97,-40.09,0,*6D
1484056846.24,27054,6.44,72324.0,-16.89,-38.91,-40.03,0,*66
1484056847.51,27055,6.44,72330.5,-16.91,-38.97,-40.29,0,*60
1484056848.78,27056,6.44,72328.5,-16.89,-39.03,-40.29,0,*66
1484056850.03,27057,6.44,72334.3,-16.89,-39.09,-40.21,0,*65
1484056851.29,27058,6.44,72330.8,-16.89,-39.03,-40.29,0,*68
1484056852.53,27059,6.44,72328.5,-16.91,-38.97,-40.35,0,*61
1484056853.78,27060,6.44,72332.8,-16.91,-39.09,-40.35,0,*6D
1484056855.05,27061,6.44,72326.8,-16.89,-39.03,-40.21,0,*6A
1484056856.32,27062,6.44,72330.8,-16.89,-39.03,-40.21,0,*69
1484056857.56,27063,6.38,72328.3,-16.91,-38.97,-40.35,0,*68
1484056858.77,27064,6.44,72330.3,-16.89,-38.97,-40.35,0,*66
1484056860.07,27065,6.44,72332.3,-16.91,-38.91,-40.41,0,*6B
1484056861.34,27066,6.38,72328.0,-16.91,-38.91,-40.47,0,*6E
1484056862.58,27067,6.38,72326.3,-16.89,-38.91,-40.47,0,*66
1484056863.82,27068,6.44,72328.8,-16.89,-38.91,-40.47,0,*69
1484056865.06,27069,6.38,72326.5,-16.91,-38.97,-40.65,0,*67
1484056866.33,27070,6.44,72324.5,-16.91,-38.91,-40.53,0,*6C
1484056867.6,27071,6.44,72328.0,-16.91,-38.91,-40.53,0,*6D
1484056868.87,27072,6.44,72326.8,-16.91,-38.91,-40.65,0,*6B
1484056870.09,27073,6.38,72326.0,-16.89,-38.73,-40.47,0,*6F
1484056871.36,27074,6.44,72330.3,-16.91,-38.79,-40.53,0,*6E
1484056872.61,27075,6.38,72324.0,-16.91,-38.73,-40.53,0,*65
1484056873.88,27076,6.44,72330.0,-16.89,-38.67,-40.59,0,*60
1484056875.12,27077,6.44,72326.8,-16.89,-38.67,-40.47,0,*6E
1484056876.36,27078,6.44,72330.3,-16.91,-38.61,-40.65,0,*6E
1484056877.58,27079,6.38,72324.8,-16.89,-38.55,-40.47,0,*61
1484056878.83,27080,6.44,72328.0,-16.89,-38.49,-40.65,0,*6A
1484056880.07,27081,6.38,72324.8,-16.91,-38.55,-40.65,0,*6F
1484056881.35,27082,6.44,72324.8,-16.89,-38.49,-40.59,0,*67
1484056882.63,27083,6.44,72328.0,-16.89,-38.49,-40.59,0,*66
1484056883.85,27084,6.44,72326.5,-16.89,-38.43,-40.65,0,*64
1484056885.09,27085,6.44,72326.0,-16.89,-38.43,-40.59,0,*6A
1484056886.31,27086,6.44,72326.3,-16.89,-38.43,-40.65,0,*66
1484056887.53,27087,6.44,72330.8,-16.89,-38.43,-40.65,0,*67
1484056888.77,27088,6.44,72332.8,-16.91,-38.35,-40.73,0,*67
1484056890.05,27089,6.44,72334.0,-16.89,-38.29,-40.59,0,*6A
1484056891.32,27090,6.38,72328.0,-16.91,-38.29,-40.73,0,*63
1484056892.58,27091,6.38,72330.3,-16.89,-38.23,-40.79,0,*6B
1484056893.85,27092,6.44,72328.3,-16.89,-38.23,-40.59,0,*6A
1484056895.1,27093,6.44,72326.8,-16.91,-38.17,-40.53,0,*6F
1484056896.34,27094,6.44,72328.0,-16.89,-38.11,-40.47,0,*62
1484056897.56,27095,6.44,72330.0,-16.89,-38.05,-40.53,0,*63
1484056898.82,27096,6.44,72324.5,-16.91,-38.11,-40.35,0,*6C
1484056900.09,27097,6.44,72330.5,-16.91,-37.99,-40.47,0,*67
1484056901.36,27098,6.38,72328.0,-16.89,-37.93,-40.41,0,*6D
1484056902.61,27099,6.38,72324.8,-16.89,-37.75,-40.29,0,*6A
1484056903.85,27100,6.44,72330.0,-16.89,-37.75,-40.29,0,*6B
1484056905.12,27101,6.44,72328.8,-16.89,-37.69,-40.29,0,*67
1484056906.38,27102,6.38,72330.8,-16.91,-37.63,-40.35,0,*6A
1484056907.65,27103,6.44,72332.0,-16.91,-37.63,-40.35,0,*6B
1484056908.92,27104,6.44,72330.5,-16.89,-37.69,-40.29,0,*62
1484056910.16,27105,6.44,72330.8,-16.89,-37.57,-40.29,0,*6E
1484056911.43,27106,6.44,72330.3,-16.89,-37.51,-40.21,0,*63
1484056912.7,27107,6.44,72328.8,-16.91,-37.57,-40.09,0,*67
1484056913.94,27108,6.44,72328.3,-16.89,-37.39,-40.03,0,*63
1484056915.21,27109,6.44,72328.3,-16.89,-37.51,-40.09,0,*66
1484056916.48,27110,6.44,72328.8,-16.91,-37.33,-40.09,0,*63
1484056917.72,27111,6.44,72334.3,-16.89,-37.33,-39.97,0,*62
1484056918.94,27112,6.44,72330.3,-16.89,-37.33,-39.91,0,*67
1484056920.21,27113,6.44,72330.8,-16.89,-37.51,-40.09,0,*6D
1484056921.48,27114,6.44,72328.3,-16.91,-37.39,-40.15,0,*60
1484056922.75,27115,6.38,72328.8,-16.89,-37.39,-40.09,0,*65
1484056924.02,27116,6.44,72330.3,-16.91,-37.45,-40.09,0,*64
1484056925.31,27117,6.44,72326.8,-16.91,-37.39,-39.97,0,*67
1484056926.56,27118,6.44,72330.5,-16.89,-37.39,-39.91,0,*67
1484056927.8,27119,6.44,72328.5,-16.89,-37.15,-39.79,0,*6E
1484056929.1,27120,6.38,72330.8,-16.91,-37.21,-39.79,0,*6A
1484056930.37,27121,6.44,72332.0,-16.91,-37.15,-39.71,0,*64
1484056931.64,27122,6.38,72328.5,-16.89,-37.09,-39.71,0,*63
1484056932.89,27123,6.38,72324.8,-16.91,-37.15,-39.65,0,*63
1484056934.16,27124,6.44,72330.0,-16.89,-37.09,-39.59,0,*6F
1484056935.4,27125,6.44,72328.0,-16.91,-37.15,-39.47,0,*65
1484056936.68,27126,6.44,72328.8,-16.91,-37.21,-39.65,0,*61
1484056937.97,27127,6.44,72330.0,-16.91,-37.21,-39.53,0,*65
1484056939.24,27128,6.38,72326.3,-16.89,-37.21,-39.41,0,*60
1484056940.48,27129,6.38,72324.0,-16.89,-36.97,-39.41,0,*6D
1484056941.72,27130,6.38,72324.5,-16.91,-37.03,-39.35,0,*63
1484056942.96,27131,6.38,72324.3,-16.89,-36.97,-39.29,0,*6A
1484056944.2,27132,6.44,72328.0,-16.89,-36.97,-39.29,0,*69
1484056945.44,27133,6.38,72326.5,-16.91,-36.97,-39.35,0,*6C
1484056946.68,27134,6.44,72330.3,-16.89,-37.03,-39.15,0,*6C
1484056947.93,27135,6.38,72328.3,-16.91,-36.97,-38.97,0,*63
1484056949.17,27136,6.44,72328.5,-16.91,-36.97,-38.97,0,*60
1484056950.41,27137,6.44,72332.8,-16.89,-36.97,-39.23,0,*66
1484056951.66,27138,6.44,72334.8,-16.89,-36.97,-39.03,0,*6B
1484056952.9,27139,6.38,72326.5,-16.89,-36.97,-38.91,0,*60
1484056954.14,27140,6.38,72328.0,-16.89,-36.97,-39.03,0,*64
1484056955.36,27141,6.44,72330.8,-16.89,-37.15,-39.09,0,*64
1484056956.63,27142,6.44,72330.0,-16.89,-37.21,-39.03,0,*6A
1484056957.9,27143,6.44,72328.5,-16.89,-37.09,-38.91,0,*6B
1484056959.12,27144,6.44,72328.3,-16.89,-37.15,-38.85,0,*64
1484056960.39,27145,6.38,72326.5,-16.87,-37.15,-38.91,0,*6E
1484056961.63,27146,6.44,72330.0,-16.91,-37.33,-39.09,0,*6E
1484056962.87,27147,6.44,72330.8,-16.89,-37.33,-39.03,0,*6C
1484056964.11,27148,6.44,72328.3,-16.89,-37.27,-39.03,0,*66
1484056965.38,27149,6.44,72328.5,-16.91,-37.39,-39.09,0,*6B
1484056966.62,27150,6.44,72328.5,-16.89,-37.27,-39.03,0,*6F
1484056967.88,27151,6.44,72328.5,-16.91,-37.33,-38.91,0,*68
1484056969.15,27152,6.44,72328.5,-16.91,-37.33,-38.91,0,*6B
1484056970.37,27153,6.44,72328.5,-16.89,-37.27,-38.85,0,*63
1484056971.64,27154,6.38,72328.8,-16.91,-37.33,-38.91,0,*6D
1484056972.85,27155,6.38,72328.0,-16.89,-37.33,-38.73,0,*69
1484056974.14,27156,6.44,72332.5,-16.91,-37.39,-38.79,0,*63
1484056975.41,27157,6.44,72332.8,-16.91,-37.45,-38.91,0,*6F
1484056976.62,27158,6.44,72330.5,-16.89,-37.33,-38.73,0,*64
1484056977.83,27159,6.44,72330.3,-16.89,-37.33,-38.73,0,*65
1484056979.1,27160,6.44,72332.0,-16.89,-37.39,-38.67,0,*60
1484056980.37,27161,6.44,72334.3,-16.89,-37.39,-38.67,0,*61
1484056981.6,27162,6.44,72332.8,-16.91,-37.57,-38.73,0,*66
1484056982.84,27163,6.44,72328.5,-16.91,-37.57,-38.73,0,*67
1484056984.11,27164,6.38,72328.5,-16.91,-37.63,-38.73,0,*67
1484056985.34,27165,6.44,72332.3,-16.91,-37.75,-38.73,0,*61
1484056986.58,27166,6.44,72330.3,-16.89,-37.75,-38.67,0,*6E
1484056987.83,27167,6.44,72330.8,-16.89,-37.69,-38.55,0,*63
1484056989.12,27168,6.44,72328.8,-16.87,-37.69,-38.67,0,*63
1484056990.36,27169,6.44,72326.5,-16.91,-37.75,-38.73,0,*6D
1484056991.6,27170,6.44,72330.3,-16.89,-37.75,-38.67,0,*69
1484056992.85,27171,6.44,72330.8,-16.89,-37.87,-38.67,0,*65
1484056994.12,27172,6.44,72330.3,-16.89,-37.93,-38.67,0,*63
1484056995.38,27173,6.44,72326.8,-16.89,-37.93,-38.67,0,*62
1484056996.65,27174,6.38,72324.8,-16.89,-37.93,-38.67,0,*65
1484056997.92,27175,6.44,72328.5,-16.91,-38.11,-38.61,0,*6E
1484056999.18,27176,6.44,72328.3,-16.89,-38.23,-38.67,0,*63
1484057000.45,27177,6.44,72328.3,-16.89,-38.11,-38.67,0,*63
1484057001.71,27178,6.44,72330.5,-16.89,-38.11,-38.67,0,*6C
1484057002.95,27179,6.38,72326.0,-16.89,-38.23,-38.73,0,*69
1484057004.16,27180,6.44,72332.8,-16.89,-38.43,-38.73,0,*69
1484057005.37,27181,6.44,72334.5,-16.89,-38.43,-38.73,0,*68
1484057006.58,27182,6.44,72334.0,-16.89,-38.43,-38.73,0,*6B
1484057007.8,27183,6.44,72332.8,-16.89,-38.43,-38.73,0,*6A
1484057009.06,27184,6.38,72326.0,-16.91,-38.55,-38.91,0,*6F
1484057010.3,27185,6.44,72330.5,-16.89,-38.67,-38.73,0,*6A
1484057011.54,27186,6.44,72326.0,-16.89,-38.67,-38.85,0,*60
1484057012.78,27187,6.44,72324.3,-16.89,-38.73,-38.91,0,*61
1484057014.04,27188,6.38,72324.3,-16.89,-38.91,-39.03,0,*68
1484057015.29,27189,6.44,72330.0,-16.89,-38.85,-38.91,0,*66
1484057016.53,27190,6.44,72330.8,-16.91,-38.97,-39.09,0,*64
1484057017.8,27191,6.44,72332.0,-16.89,-38.91,-39.03,0,*60
1484057019.06,27192,6.44,72328.5,-16.89,-39.03,-38.91,0,*63
1484057020.34,27193,6.44,72328.0,-16.91,-39.09,-39.15,0,*6C
1484057021.58,27194,6.44,72330.5,-16.89,-39.03,-39.09,0,*65
1484057022.83,27195,6.38,72324.8,-16.89,-39.09,-39.23,0,*66
1484057024.07,27196,6.44,72330.0,-16.89,-39.09,-39.29,0,*6F
1484057025.33,27197,6.38,72324.8,-16.89,-39.29,-39.29,0,*6C
1484057026.6,27198,6.44,72330.0,-16.91,-39.29,-39.35,0,*67
1484057027.81,27199,6.44,72330.3,-16.89,-39.35,-39.47,0,*67
1484057029.04,27200,6.44,72328.0,-16.89,-39.41,-39.47,0,*67
1484057030.28,27201,6.38,72326.0,-16.89,-39.41,-39.47,0,*66
1484057031.5,27202,6.38,72326.0,-16.89,-39.35,-39.65,0,*66
1484057032.77,27203,6.38,72326.8,-16.91,-39.53,-39.65,0,*6E
1484057033.99,27204,6.44,72326.5,-16.89,-39.47,-39.65,0,*65
1484057035.24,27205,6.44,72328.3,-16.89,-39.47,-39.71,0,*61
1484057036.51,27206,6.44,72330.5,-16.89,-39.41,-39.71,0,*64
1484057037.78,27207,6.44,72326.8,-16.89,-39.41,-39.71,0,*65
1484057039.0,27208,6.44,72330.0,-16.89,-39.65,-39.91,0,*62
1484057040.23,27209,6.44,72330.0,-16.89,-39.47,-39.91,0,*63
1484057041.5,27210,6.44,72328.0,-16.91,-39.65,-39.97,0,*64
1484057042.8,27211,6.44,72332.0,-16.91,-39.71,-40.09,0,*69
1484057044.05,27212,6.44,72332.8,-16.89,-39.47,-40.09,0,*66
1484057045.3,27213,6.44,72332.5,-16.89,-39.59,-40.03,0,*62
1484057046.57,27214,6.44,72332.5,-16.89,-39.71,-40.21,0,*6F
1484057047.85,27215,6.44,72332.8,-16.89,-39.59,-40.21,0,*64
1484057049.13,27216,6.44,72328.8,-16.91,-39.71,-40.35,0,*61
1484057050.35,27217,6.44,72328.5,-16.89,-39.65,-40.35,0,*6C
1484057051.62,27218,6.44,72328.3,-16.91,-39.71,-40.53,0,*6F
1484057052.9,27219,6.38,72326.5,-16.89,-39.71,-40.59,0,*6D
1484057054.15,27220,6.44,72330.5,-16.89,-39.85,-40.41,0,*65
1484057055.43,27221,6.44,72330.0,-16.89,-39.71,-40.59,0,*66
1484057056.71,27222,6.44,72328.3,-16.91,-39.79,-40.73,0,*6C
1484057057.99,27223,6.44,72330.0,-16.91,-39.79,-40.73,0,*6D
1484057059.27,27224,6.44,72330.3,-16.91,-39.79,-40.73,0,*6A
1484057060.58,27225,6.44,72324.3,-16.91,-39.71,-40.85,0,*6A
1484057061.87,27226,6.44,72326.5,-16.91,-39.79,-40.91,0,*64
1484057063.15,27227,6.44,72326.0,-16.89,-39.71,-40.85,0,*61
1484057064.4,27228,6.44,72330.3,-16.91,-39.91,-40.91,0,*6C
1484057065.69,27229,6.44,72324.8,-16.91,-39.79,-40.91,0,*6B
1484057066.98,27230,6.44,72324.3,-16.91,-39.79,-40.91,0,*63
1484057068.26,27231,6.44,72324.5,-16.91,-39.79,-41.03,0,*68
1484057069.52,27232,6.44,72326.3,-16.89,-39.71,-41.03,0,*6A
1484057070.77,27233,6.38,72322.5,-16.89,-39.71,-41.03,0,*6B
1484057072.06,27234,6.38,72324.5,-16.91,-39.79,-41.11,0,*6E
1484057073.34,27235,6.38,72326.8,-16.91,-39.79,-41.11,0,*6F
1484057074.57,27236,6.44,72328.3,-16.89,-39.85,-41.03,0,*65
1484057075.8,27237,6.44,72330.0,-16.89,-39.91,-41.17,0,*64
1484057077.03,27238,6.44,72330.8,-16.89,-39.85,-41.03,0,*6B
1484057078.3,27239,6.44,72328.0,-16.91,-40.09,-41.11,0,*6A
1484057079.58,27240,6.44,72330.3,-16.91,-39.79,-41.17,0,*6B
1484057080.81,27241,6.44,72332.5,-16.89,-39.91,-41.11,0,*63
1484057082.09,27242,6.44,72328.0,-16.91,-40.09,-41.29,0,*6D
1484057083.36,27243,6.44,72324.3,-16.91,-40.09,-41.17,0,*61
1484057084.64,27244,6.44,72326.3,-16.91,-40.09,-41.29,0,*6B
1484057085.89,27245,6.44,72326.8,-16.89,-40.09,-41.11,0,*68
1484057087.14,27246,6.44,72326.0,-16.89,-40.09,-41.17,0,*6D
1484057088.41,27247,6.44,72322.3,-16.91,-40.09,-41.17,0,*65
1484057089.66,27248,6.44,72324.8,-16.89,-40.03,-41.23,0,*6E
1484057090.93,27249,6.44,72324.5,-16.91,-40.09,-41.17,0,*6B
1484057092.21,27250,6.44,72324.3,-16.91,-40.09,-41.29,0,*6E
1484057093.48,27251,6.44,72326.5,-16.91,-39.97,-41.17,0,*6B
1484057094.76,27252,6.38,72326.8,-16.91,-40.15,-41.35,0,*6C
1484057096.04,27253,6.44,72326.8,-16.91,-40.15,-41.35,0,*6D
1484057097.35,27254,6.44,72326.8,-16.91,-40.09,-41.35,0,*67
1484057098.63,27255,6.44,72326.3,-16.91,-40.15,-41.35,0,*6B
1484057099.88,27256,6.44,72324.8,-16.91,-40.15,-41.49,0,*63
1484057101.1,27257,6.44,72326.5,-16.89,-40.03,-41.41,0,*64
1484057102.37,27258,6.44,72326.3,-16.91,-40.09,-41.49,0,*60
1484057103.62,27259,6.44,72324.8,-16.91,-40.15,-41.49,0,*6C
1484057104.89,27260,6.44,72326.5,-16.91,-40.29,-41.49,0,*69
1484057106.13,27261,6.44,72326.3,-16.89,-40.09,-41.41,0,*6B
1484057107.42,27262,6.44,72326.5,-16.91,-40.15,-41.55,0,*69
1484057108.71,27263,6.44,72326.8,-16.91,-40.29,-41.55,0,*67
1484057109.99,27264,6.44,72322.3,-16.91,-40.15,-41.55,0,*6F
1484057111.28,27265,6.44,72326.0,-16.91,-40.15,-41.67,0,*6F
1484057112.57,27266,6.44,72328.0,-16.91,-40.29,-41.67,0,*63
1484057113.84,27267,6.38,72322.8,-16.91,-40.29,-41.73,0,*67
1484057115.1,27268,6.44,72326.3,-16.91,-40.29,-41.73,0,*68
1484057116.36,27269,6.44,72326.8,-16.91,-40.15,-41.87,0,*6D
1484057117.62,27270,6.44,72326.0,-16.95,-40.35,-41.81,0,*65
1484057118.9,27271,6.38,72324.8,-16.95,-40.41,-41.99,0,*6E
1484057120.14,27272,6.44,72330.5,-16.95,-40.35,-41.99,0,*6E
1484057121.4,27273,6.44,72326.3,-16.95,-40.35,-41.93,0,*65
1484057122.66,27274,6.44,72332.0,-16.95,-40.21,-42.13,0,*6C
1484057123.92,27275,6.44,72330.5,-16.95,-40.21,-42.13,0,*6D
1484057125.18,27276,6.44,72324.8,-16.95,-40.21,-41.99,0,*6F
1484057126.46,27277,6.44,72326.0,-16.91,-40.15,-42.05,0,*6B
1484057127.72,27278,6.44,72324.5,-16.95,-40.21,-42.13,0,*60
1484057128.98,27279,6.44,72326.8,-16.95,-40.21,-42.13,0,*61
1484057130.23,27280,6.44,72330.0,-16.95,-40.15,-42.13,0,*60
1484057131.51,27281,6.44,72324.8,-16.95,-40.15,-42.19,0,*6B
1484057132.8,27282,6.44,72326.8,-16.95,-40.15,-42.31,0,*62
1484057134.07,27283,6.44,72326.5,-16.95,-40.03,-42.31,0,*64
1484057135.35,27284,6.44,72324.8,-16.95,-40.15,-42.31,0,*64
1484057136.63,27285,6.44,72326.0,-16.95,-40.03,-42.31,0,*62
1484057137.88,27286,6.38,72324.8,-16.97,-40.15,-42.31,0,*64
1484057139.16,27287,6.44,72326.0,-16.95,-40.03,-42.31,0,*60
1484057140.37,27288,6.44,72328.0,-16.97,-40.03,-42.37,0,*6B
1484057141.61,27289,6.44,72330.0,-16.95,-40.03,-42.37,0,*68
1484057142.85,27290,6.44,72328.5,-16.97,-39.97,-42.37,0,*61
1484057144.07,27291,6.44,72324.3,-16.97,-39.85,-42.37,0,*63
1484057145.35,27292,6.44,72326.0,-16.97,-39.79,-42.31,0,*65
1484057146.6,27293,6.38,72324.8,-16.97,-39.79,-42.37,0,*62
1484057147.85,27294,6.44,72328.8,-16.97,-39.71,-42.37,0,*6D
1484057149.09,27295,6.44,72328.5,-16.97,-39.53,-42.37,0,*6C
1484057150.36,27296,6.44,72330.8,-16.95,-39.71,-42.37,0,*6D
1484057151.6,27297,6.44,72324.8,-16.97,-39.53,-42.37,0,*6E
1484057152.85,27298,6.44,72320.5,-16.97,-39.59,-42.37,0,*6B
1484057154.13,27299,6.44,72322.8,-16.97,-39.59,-42.45,0,*6F
1484057155.41,27300,6.44,72324.3,-16.95,-39.53,-42.57,0,*65
1484057156.68,27301,6.44,72322.0,-16.97,-39.53,-42.57,0,*66
1484057157.94,27302,6.38,72322.8,-16.97,-39.53,-42.57,0,*65
1484057159.21,27303,6.44,72328.5,-16.97,-39.53,-42.45,0,*67
1484057160.47,27304,6.38,72324.0,-16.95,-39.41,-42.37,0,*64
1484057161.74,27305,6.44,72324.8,-16.97,-39.23,-42.45,0,*66
1484057163.03,27306,6.44,72328.3,-16.95,-39.23,-42.45,0,*67
1484057164.3,27307,6.44,72330.0,-16.97,-39.03,-42.45,0,*66
1484057165.56,27308,6.44,72326.8,-16.97,-39.03,-42.45,0,*69
1484057166.83,27309,6.44,72328.0,-16.95,-38.97,-42.57,0,*65
1484057168.09,27310,6.44,72326.8,-16.97,-39.03,-42.57,0,*63
1484057169.34,27311,6.44,72326.0,-16.97,-38.85,-42.45,0,*6E
1484057170.63,27312,6.44,72324.8,-16.95,-38.79,-42.45,0,*6C
1484057171.93,27313,6.44,72324.8,-16.95,-38.79,-42.45,0,*6D
1484057173.23,27314,6.44,72326.3,-16.99,-38.79,-42.45,0,*66
1484057174.49,27315,6.44,72326.3,-16.97,-38.67,-42.45,0,*66
1484057175.73,27316,6.44,72330.0,-16.95,-38.61,-42.37,0,*64
1484057176.97,27317,6.44,72328.3,-16.97,-38.43,-42.45,0,*62
1484057178.19,27318,6.44,72326.0,-16.97,-38.43,-42.37,0,*68
1484057179.4,27319,6.44,72326.0,-16.97,-38.55,-42.37,0,*6E
1484057180.64,27320,6.44,72324.3,-16.97,-38.43,-42.45,0,*66
1484057181.86,27321,6.44,72330.5,-16.97,-38.35,-42.37,0,*63
1484057183.07,27322,6.44,72328.0,-16.97,-38.35,-42.37,0,*60
1484057184.28,27323,6.44,72330.3,-16.97,-38.43,-42.37,0,*60
1484057185.52,27324,6.44,72326.8,-16.97,-38.23,-42.37,0,*61
1484057186.79,27325,6.44,72324.8,-16.97,-38.23,-42.31,0,*66
1484057188.07,27326,6.44,72326.8,-16.99,-38.17,-42.31,0,*6C
1484057189.35,27327,6.44,72320.8,-16.99,-38.05,-42.19,0,*64
1484057190.62,27328,6.38,72322.5,-16.99,-38.05,-42.19,0,*6B
1484057191.89,27329,6.44,72326.8,-16.99,-37.99,-41.99,0,*6B
1484057193.2,27330,6.44,72326.5,-16.99,-37.81,-41.81,0,*63
1484057194.47,27331,6.44,72326.5,-16.99,-37.69,-41.73,0,*69
1484057195.77,27332,6.44,72324.0,-16.99,-37.69,-41.81,0,*67
1484057197.04,27333,6.44,72328.0,-16.99,-37.63,-41.73,0,*61
1484057198.29,27334,6.44,72328.5,-16.97,-37.51,-41.73,0,*69
1484057199.53,27335,6.38,72324.5,-16.99,-37.45,-41.61,0,*60
1484057200.81,27336,6.44,72328.0,-16.99,-37.51,-41.41,0,*64
1484057202.08,27337,6.44,72326.3,-16.99,-37.39,-41.41,0,*6B
1484057203.36,27338,6.44,72328.0,-16.99,-37.39,-41.41,0,*64
1484057204.63,27339,6.44,72328.3,-16.99,-37.45,-41.35,0,*6D
1484057205.91,27340,6.44,72330.0,-16.99,-37.27,-41.35,0,*67
1484057207.15,27341,6.38,72324.3,-16.95,-37.27,-41.17,0,*6A
1484057208.41,27342,6.44,72328.3,-16.97,-37.21,-41.11,0,*6B
1484057209.66,27343,6.38,72320.5,-16.97,-37.21,-41.17,0,*6C
1484057210.92,27344,6.44,72324.8,-16.97,-37.21,-40.91,0,*64
1484057212.22,27345,6.38,72322.0,-16.99,-37.09,-40.97,0,*67
1484057213.52,27346,6.44,72326.0,-16.99,-37.09,-40.79,0,*64
1484057214.77,27347,6.44,72330.3,-16.99,-37.03,-40.73,0,*65
1484057216.05,27348,6.44,72328.3,-16.99,-37.03,-40.59,0,*62
1484057217.27,27349,6.44,72330.0,-16.97,-37.03,-40.53,0,*67
1484057218.55,27350,6.44,72328.8,-16.97,-36.91,-40.59,0,*6F
1484057219.79,27351,6.44,72326.8,-16.97,-36.91,-40.53,0,*64
1484057221.01,27352,6.44,72326.3,-16.97,-36.85,-40.35,0,*62
1484057222.23,27353,6.44,72326.5,-16.97,-36.85,-40.35,0,*63
1484057223.48,27354,6.44,72326.0,-16.97,-36.85,-40.41,0,*67
1484057224.7,27355,6.44,72328.5,-16.97,-36.85,-40.35,0,*65
1484057225.95,27356,6.44,72330.3,-16.97,-36.67,-40.21,0,*6F
1484057227.17,27357,6.44,72328.3,-16.97,-36.73,-40.15,0,*6C
1484057228.44,27358,6.44,72326.5,-16.95,-36.73,-40.21,0,*66
1484057229.66,27359,6.44,72328.5,-16.97,-36.73,-40.03,0,*65
1484057230.94,27360,6.44,72326.8,-16.99,-36.67,-39.97,0,*67
1484057232.21,27361,6.44,72326.5,-16.99,-36.67,-39.97,0,*66
1484057233.45,27362,6.44,72324.3,-16.97,-36.49,-39.85,0,*64
1484057234.72,27363,6.44,72326.5,-16.99,-36.49,-39.85,0,*6B
1484057236.0,27364,6.44,72326.3,-16.99,-36.55,-39.79,0,*62
1484057237.24,27365,6.44,72326.0,-16.97,-36.55,-39.79,0,*6D
1484057238.51,27366,6.44,72326.3,-16.97,-36.49,-39.59,0,*61
1484057239.81,27367,6.44,72326.8,-16.99,-36.49,-39.59,0,*6E
1484057241.07,27368,6.44,72324.5,-16.97,-36.49,-39.53,0,*65
1484057242.34,27369,6.44,72324.0,-16.97,-36.49,-39.41,0,*67
1484057243.6,27370,6.38,72322.8,-16.97,-36.49,-39.41,0,*6F
1484057244.86,27371,6.44,72326.8,-16.97,-36.37,-39.23,0,*63
1484057246.11,27372,6.44,72326.3,-16.97,-36.31,-39.23,0,*66
1484057247.37,27373,6.44,72328.0,-16.97,-36.37,-39.23,0,*61
1484057248.64,27374,6.44,72324.3,-16.97,-36.37,-39.15,0,*63
1484057249.9,27375,6.44,72324.0,-16.97,-36.37,-39.03,0,*65
1484057251.12,27376,6.38,72320.3,-16.97,-36.31,-38.97,0,*6C
1484057252.36,27377,6.44,72326.3,-16.97,-36.37,-38.97,0,*6B
1484057253.63,27378,6.44,72326.3,-16.95,-36.37,-38.97,0,*66
1484057254.87,27379,6.44,72328.0,-16.97,-36.37,-38.85,0,*66
1484057256.11,27380,6.44,72326.3,-16.97,-36.37,-38.97,0,*63
1484057257.36,27381,6.44,72324.5,-16.97,-36.49,-38.85,0,*68
1484057258.58,27382,6.44,72326.0,-16.97,-36.55,-38.85,0,*66
1484057259.82,27383,6.44,72322.5,-16.97,-36.55,-38.79,0,*64
1484057261.07,27384,6.44,72322.3,-16.97,-36.55,-38.79,0,*63
1484057262.34,27385,6.44,72326.5,-16.97,-36.49,-38.67,0,*60
1484057263.56,27386,6.44,72326.0,-16.97,-36.55,-38.55,0,*6F
1484057264.81,27387,6.44,72324.0,-16.95,-36.67,-38.43,0,*6A
1484057266.03,27388,6.44,72328.8,-16.97,-36.55,-38.43,0,*66
1484057267.26,27389,6.44,72326.0,-16.97,-36.67,-38.43,0,*66
1484057268.48,27390,6.44,72330.0,-16.97,-36.67,-38.55,0,*69
1484057269.71,27391,6.44,72330.0,-16.97,-36.73,-38.55,0,*6D
1484057270.96,27392,6.44,72326.3,-16.95,-36.73,-38.35,0,*6A
1484057272.18,27393,6.44,72326.3,-16.97,-36.85,-38.35,0,*60
1484057273.43,27394,6.44,72326.0,-16.97,-36.91,-38.43,0,*63
1484057274.68,27395,6.44,72326.8,-16.95,-36.85,-38.43,0,*65
1484057275.95,27396,6.44,72326.0,-16.95,-36.91,-38.43,0,*63
1484057277.2,27397,6.38,72322.8,-16.97,-37.09,-38.43,0,*60
1484057278.45,27398,6.44,72326.5,-16.97,-37.09,-38.43,0,*6F
1484057279.7,27399,6.44,72324.8,-16.97,-37.09,-38.55,0,*69
1484057280.95,27400,6.44,72330.0,-16.97,-37.21,-38.43,0,*63
1484057282.23,27401,6.44,72324.0,-16.95,-37.21,-38.35,0,*61
1484057283.45,27402,6.44,72324.0,-16.97,-37.27,-38.43,0,*67
1484057284.7,27403,6.44,72320.5,-16.97,-37.39,-38.55,0,*6E
1484057285.97,27404,6.44,72326.0,-16.95,-37.39,-38.55,0,*6B
1484057287.19,27405,6.44,72324.5,-16.97,-37.45,-38.55,0,*63
1484057288.46,27406,6.44,72324.3,-16.97,-37.39,-38.67,0,*6A
1484057289.71,27407,6.44,72320.5,-16.97,-37.39,-38.55,0,*6A
1484057290.95,27408,6.44,72326.3,-16.97,-37.63,-38.55,0,*6A
1484057292.25,27409,6.44,72330.5,-16.95,-37.51,-38.67,0,*69
1484057293.52,27410,6.44,72322.0,-16.97,-37.69,-38.67,0,*68
1484057294.82,27411,6.44,72322.3,-16.95,-37.81,-38.79,0,*62
1484057296.12,27412,6.44,72324.5,-16.95,-37.81,-38.79,0,*61
1484057297.42,27413,6.44,72326.5,-16.95,-37.81,-38.79,0,*60
1484057298.67,27414,6.44,72324.8,-16.97,-37.87,-38.79,0,*63
1484057299.94,27415,6.44,72322.0,-16.97,-37.99,-38.79,0,*6D
1484057301.19,27416,6.44,72320.3,-16.95,-38.17,-38.85,0,*66
1484057302.44,27417,6.44,72322.0,-16.95,-38.05,-38.85,0,*64